Weather in Burovoy

Russia / Krasnoyarsk Krai     57°16′42″N   94°48′46″E
temp.,
°C
wind,
m/s
gust,
m/s
humid.,
%
clouds,
%
prec.,
mm/h
press.,
hPa
HPBL,
m
2 december, thu
thu201:00−6ssw2689100 1.2 1024267
04:00−5wsw31181100 0.0 1021587
07:00−4wsw41390100 0.1 1020695
10:00−3wsw41379100 0.3 1020696
13:00−2wsw41278100 0.3 1020732
16:00−2wsw41280100 0.1 1019659
19:00−2wsw4127894 0.1 1019506
22:00−2wsw31275100 0.0 1018533
3 december, fri
fri301:00−2wsw31170100 0.0 1017364
04:00−2sw3969100 0.0 1015212
07:00−1sw31162100 0.0 1013255
10:00+1sw51656100 0.0 1011517
13:00+3sw5185393 0.0 1009615
16:00+3sw51450100 0.0 1007420
19:00+3sw61851100 0.0 1007837
22:00+1wsw61570100 0.1 10071015
4 december, sat
sat401:000sw41395100 0.6 1006878
04:000wsw41196100 0.9 1006854
07:000wsw41197100 2.0 1007980
10:000wsw7147982 0.8 10111323
13:00−1wsw61579100 0.9 10131494
16:00−2wsw61486100 0.1 10141359
19:00−3w61490100 0.4 10151430
22:00−5w61386100 0.3 10191133
5 december, sun
sun501:00−7w61285100 0.3 10231012
04:00−8w61285100 0.1 1025993
07:00−8wsw51284100 0.1 1027879
10:00−8wsw51283100 0.0 1028925
13:00−7wsw51183100 0.1 10271036
16:00−6wsw41188100 0.1 1026795
19:00−5sw41389100 0.3 1023741
22:00−4sw51478100 0.0 1020786
6 december, mon
mon601:00−3wsw51676100 0.0 1018864
04:00−3wsw51487100 0.2 1017831
07:00−3wsw41395100 0.9 1016794
10:00−2sw4129299 0.8 1016771
13:00−1wsw41286100 0.9 1016897
16:00−1sw41297100 0.4 1015721
19:00−1sw41296100 1.7 1015714
22:00−2sw41295100 1.3 1014653